K7RMR Weather Reports


Display with metric or nautical units.
time (UTC)temp
F
wind
direction
speed
MPH
gust
MPH
rain 1hr
in
rain 24hr
in
rain mn
in
humidity
%
barometer
mb
20260505034551 72 307 3.0 13.0 0.00 0.00 0.00 41 1006.3
20260505033047 73 281 3.0 10.0 0.00 0.00 0.00 39 1006.0
20260505031550 74 311 5.0 11.0 0.00 0.00 0.00 38 1005.8
20260505030039 75 281 6.0 14.0 0.00 0.00 0.00 37 1005.5
20260505024606 76 289 5.0 13.0 0.00 0.00 0.00 36 1005.4
20260505023041 77 300 6.0 15.0 0.00 0.00 0.00 35 1005.4
20260505021604 78 266 6.0 18.0 0.00 0.00 0.00 34 1005.3
20260505020045 78 270 7.0 17.0 0.00 0.00 0.00 33 1005.3
20260505014553 79 281 8.0 21.0 0.00 0.00 0.00 31 1005.2
20260505013044 80 246 7.0 15.0 0.00 0.00 0.00 32 1005.2
20260505011656 81 271 7.0 18.0 0.00 0.00 0.00 32 1005.4
20260505010046 81 259 9.0 17.0 0.00 0.00 0.00 31 1005.4
20260505004559 82 283 8.0 15.0 0.00 0.00 0.00 30 1005.4
20260505003053 82 295 7.0 23.0 0.00 0.00 0.00 29 1005.4
20260505001542 83 296 9.0 15.0 0.00 0.00 0.00 28 1005.4
20260505000056 83 273 9.0 16.0 0.00 0.00 0.00 27 1005.2
20260504234541 83 254 9.0 18.0 0.00 0.00 0.00 28 1005.1
20260504233053 84 312 10.0 19.0 0.00 0.00 0.00 27 1005.2
20260504231550 84 298 8.0 16.0 0.00 0.00 0.00 27 1005.2
20260504230040 85 252 6.0 16.0 0.00 0.00 0.00 26 1005.4
20260504224548 84 298 4.0 11.0 0.00 0.00 0.00 27 1005.5
20260504223041 85 277 4.0 8.0 0.00 0.00 0.00 25 1005.6
20260504221600 85 91 1.0 7.0 0.00 0.00 0.00 27 1005.7
20260504220127 85 324 3.0 9.0 0.00 0.00 0.00 25 1006.0
20260504214548 85 23 1.0 4.0 0.00 0.00 0.00 26 1006.1
20260504213123 84 190 2.0 5.0 0.00 0.00 0.00 27 1006.5
20260504211550 83 137 4.0 8.0 0.00 0.00 0.00 28 1006.7
20260504210039 84 127 4.0 9.0 0.00 0.00 0.00 26 1006.9
20260504204601 84 94 1.0 5.0 0.00 0.00 0.00 26 1007.1
20260504203038 82 134 2.0 5.0 0.00 0.00 0.00 29 1007.2
20260504201553 81 110 5.0 10.0 0.00 0.00 0.00 31 1007.3
20260504200046 81 101 1.0 4.0 0.00 0.00 0.00 32 1007.6
20260504194554 80 142 2.0 5.0 0.00 0.00 0.00 36 1007.8
20260504193045 78 140 1.0 5.0 0.00 0.00 0.00 44 1008.0
20260504191542 77 121 0.0 5.0 0.00 0.00 0.00 43 1008.1
20260504190052 75 127 0.0 7.0 0.00 0.00 0.00 45 1008.4
20260504184542 74 94 1.0 5.0 0.00 0.00 0.00 45 1008.6
20260504183051 73 140 2.0 5.0 0.00 0.00 0.00 46 1008.7
20260504181544 72 104 1.0 4.0 0.00 0.00 0.00 48 1008.8
20260504180053 71 53 1.0 5.0 0.00 0.00 0.00 48 1008.8
20260504174545 69 107 1.0 4.0 0.00 0.00 0.00 52 1008.9
20260504173057 68 73 2.0 5.0 0.00 0.00 0.00 53 1009.0
20260504171544 67 132 1.0 4.0 0.00 0.00 0.00 54 1009.0
20260504081554 51 327 0.0 0.0 0.00 0.00 0.00 78 1009.1
20260504044542 65 326 0.0 0.0 0.00 0.00 0.00 56 1008.8
20260504043050 66 326 0.0 0.0 0.00 0.00 0.00 54 1008.5
20260504041558 67 326 0.0 4.0 0.00 0.00 0.00 52 1008.4
20260504040145 68 238 0.0 2.0 0.00 0.00 0.00 51 1008.3